K4QXN Weather Reports


time (UTC)temp
F
wind
direction
speed
knots
gust
knots
rain 1hr
in
rain 24hr
in
rain mn
in
humidity
%
barometer
mb
20260505113847 58 225 0.0 0.0 0.00 0.00 0.00 82 1014.5
20260505113345 58 225 0.0 0.0 0.00 0.00 0.00 82 1014.5
20260505112843 58 225 0.0 0.0 0.00 0.00 0.00 84 1014.5
20260505112341 58 203 0.0 0.0 0.00 0.00 0.00 90 1014.2
20260505111840 54 203 0.0 0.0 0.00 0.00 0.00 91 1014.2
20260505111338 53 270 0.0 0.0 0.00 0.00 0.00 92 1014.5
20260505110836 51 270 0.0 0.0 0.00 0.00 0.00 91 1014.5
20260505110334 50 225 0.0 0.0 0.00 0.00 0.00 91 1014.5
20260505101819 52 225 0.0 0.0 0.00 0.00 0.00 89 1013.8
20260505101317 52 203 0.0 0.0 0.00 0.00 0.00 89 1014.2
20260505100816 52 270 0.0 0.0 0.00 0.00 0.00 89 1013.8
20260505100314 52 225 0.0 0.0 0.00 0.00 0.00 89 1014.2
20260505095812 52 248 0.0 0.0 0.00 0.00 0.00 88 1013.8
20260505095310 52 225 0.0 0.0 0.00 0.00 0.00 88 1013.8
20260505094809 52 203 0.0 0.0 0.00 0.00 0.00 87 1014.2
20260505094307 52 248 0.0 0.0 0.00 0.00 0.00 86 1013.8
20260505093806 52 248 0.0 0.0 0.00 0.00 0.00 85 1013.8
20260505093304 53 248 0.0 0.0 0.00 0.00 0.00 85 1013.8
20260505092802 54 225 0.0 0.0 0.00 0.00 0.00 84 1013.5
20260505092301 54 225 0.0 0.0 0.00 0.00 0.00 83 1013.8
20260505091759 54 225 0.0 0.0 0.00 0.00 0.00 83 1013.5
20260505091257 55 203 0.0 0.0 0.00 0.00 0.00 82 1013.5
20260505090755 55 248 0.0 0.0 0.00 0.00 0.00 82 1013.5
20260505090253 55 225 0.0 0.0 0.00 0.00 0.00 81 1013.5
20260505085752 56 203 0.0 0.0 0.00 0.00 0.00 81 1013.5
20260505085250 56 248 0.0 0.0 0.00 0.00 0.00 80 1013.5
20260505084748 56 203 0.0 0.0 0.00 0.00 0.00 80 1013.5
20260505084246 56 225 0.0 0.9 0.00 0.00 0.00 80 1013.5
20260505083745 56 225 0.0 0.0 0.00 0.00 0.00 79 1013.5
20260505083243 56 158 0.0 0.0 0.00 0.00 0.00 78 1013.2
20260505082741 57 248 1.7 5.2 0.00 0.00 0.00 78 1013.5
20260505082240 57 270 0.0 0.0 0.00 0.00 0.00 78 1012.8
20260505081738 57 203 0.9 1.7 0.00 0.00 0.00 77 1013.2
20260505081236 57 203 0.0 0.9 0.00 0.00 0.00 77 1013.2
20260505080735 57 248 1.7 1.7 0.00 0.00 0.00 77 1013.2
20260505080233 57 203 0.0 1.7 0.00 0.00 0.00 76 1013.2
20260505075731 57 225 0.0 1.7 0.00 0.00 0.00 76 1013.2
20260505075229 57 225 1.7 1.7 0.00 0.00 0.00 75 1013.2
20260505074727 57 248 0.0 1.7 0.00 0.00 0.00 75 1013.2
20260505074226 58 225 0.0 1.7 0.00 0.00 0.00 74 1013.2
20260505073724 58 180 0.0 0.0 0.00 0.00 0.00 74 1013.2
20260505073222 58 225 0.9 1.7 0.00 0.00 0.00 74 1013.5
20260505072720 58 248 0.0 0.0 0.00 0.00 0.00 73 1013.2
20260505072218 58 270 0.0 0.9 0.00 0.00 0.00 73 1013.2
20260505071717 58 248 0.0 0.9 0.00 0.00 0.00 72 1013.2
20260505071215 59 248 0.0 0.9 0.00 0.00 0.00 72 1013.2
20260505070713 59 270 0.0 0.9 0.00 0.00 0.00 71 1013.2
20260505070212 59 225 0.0 0.9 0.00 0.00 0.00 70 1012.8
20260505065710 59 203 2.6 4.3 0.00 0.00 0.00 70 1013.2
20260505065208 59 203 0.0 0.9 0.00 0.00 0.00 70 1012.8
20260505064706 60 203 0.0 0.0 0.00 0.00 0.00 69 1012.8
20260505064204 60 203 1.7 2.6 0.00 0.00 0.00 69 1013.2
20260505063703 60 248 0.0 0.9 0.00 0.00 0.00 68 1013.2
20260505063201 60 270 0.0 0.9 0.00 0.00 0.00 67 1013.2
20260505062700 60 248 1.7 3.5 0.00 0.00 0.00 67 1013.2
20260505062158 61 270 0.0 0.9 0.00 0.00 0.00 66 1013.5
20260505061656 61 225 0.9 2.6 0.00 0.00 0.00 66 1013.2
20260505061154 61 225 1.7 2.6 0.00 0.00 0.00 66 1013.2
20260505060652 61 248 0.0 0.9 0.00 0.00 0.00 65 1013.2
20260505060151 61 293 0.0 0.9 0.00 0.00 0.00 65 1013.2
20260505055649 61 225 0.0 0.0 0.00 0.00 0.00 64 1013.5
20260505055147 62 248 1.7 3.5 0.00 0.00 0.00 63 1013.2
20260505054645 61 248 3.5 5.2 0.00 0.00 0.00 63 1013.5
20260505054144 62 338 0.9 1.7 0.00 0.00 0.00 62 1013.2
20260505053642 62 270 0.9 2.6 0.00 0.00 0.00 62 1013.2
20260505053140 62 315 2.6 3.5 0.00 0.00 0.00 62 1013.2
20260505052639 62 180 1.7 2.6 0.00 0.00 0.00 61 1013.2
20260505052137 62 225 3.5 4.3 0.00 0.00 0.00 59 1013.5
20260505051636 62 225 3.5 4.3 0.00 0.00 0.00 59 1013.5
20260505051134 62 248 0.9 1.7 0.00 0.00 0.00 59 1013.5
20260505050632 62 248 2.6 2.6 0.00 0.00 0.00 58 1013.5
20260505050131 61 270 0.0 0.9 0.00 0.00 0.00 57 1013.5
20260505041616 63 203 0.0 0.9 0.00 0.00 0.00 53 1013.5
20260505041114 63 315 0.0 0.0 0.00 0.00 0.00 53 1013.5
20260505040612 63 203 0.0 0.0 0.00 0.00 0.00 52 1013.5
20260505040111 63 135 0.0 0.9 0.00 0.00 0.00 52 1013.5
20260505035609 63 248 0.0 0.9 0.00 0.00 0.00 52 1013.5
20260505035107 63 135 0.9 2.6 0.00 0.00 0.00 52 1013.5
20260505034605 63 203 0.0 0.9 0.00 0.00 0.00 52 1013.5
20260505034104 63 248 0.0 0.0 0.00 0.00 0.00 51 1013.2
20260505033602 63 225 0.0 0.9 0.00 0.00 0.00 51 1013.5
20260505033100 64 270 0.0 1.7 0.00 0.00 0.00 50 1013.5
20260505032559 64 203 0.9 1.7 0.00 0.00 0.00 50 1013.5
20260505032057 64 203 0.0 0.0 0.00 0.00 0.00 51 1013.5
20260505031555 64 203 0.0 0.0 0.00 0.00 0.00 50 1013.5
20260505031054 64 203 0.0 1.7 0.00 0.00 0.00 50 1013.2
20260505030552 64 225 0.9 1.7 0.00 0.00 0.00 50 1013.5
20260505030050 64 270 0.0 0.9 0.00 0.00 0.00 50 1013.5
20260505025548 64 248 0.0 1.7 0.00 0.00 0.00 49 1013.5
20260505025047 65 225 0.9 1.7 0.00 0.00 0.00 49 1013.5
20260505024545 64 248 0.0 0.9 0.00 0.00 0.00 50 1013.5
20260505024043 64 203 0.9 1.7 0.00 0.00 0.00 50 1013.5
20260505023542 64 248 0.0 0.0 0.00 0.00 0.00 51 1013.2
20260505023040 63 248 0.0 0.0 0.00 0.00 0.00 51 1013.5
20260505022538 63 270 0.0 0.9 0.00 0.00 0.00 52 1013.2
20260505022037 63 248 0.0 0.0 0.00 0.00 0.00 52 1013.2
20260505021535 63 225 0.0 0.0 0.00 0.00 0.00 52 1013.2
20260505021033 63 180 0.0 0.9 0.00 0.00 0.00 52 1013.2
20260505020531 62 270 0.0 0.0 0.00 0.00 0.00 55 1013.2
20260505020030 60 248 0.0 0.0 0.00 0.00 0.00 58 1013.5
20260505015528 61 90 0.0 0.0 0.00 0.00 0.00 56 1013.2
20260505015026 62 225 0.0 0.0 0.00 0.00 0.00 54 1012.8
20260505014524 62 225 0.0 0.0 0.00 0.00 0.00 54 1012.8
20260505014023 61 225 0.0 0.0 0.00 0.00 0.00 55 1013.2
20260505013521 61 203 0.0 0.0 0.00 0.00 0.00 54 1012.8
20260505013019 61 225 0.0 0.0 0.00 0.00 0.00 56 1012.8
20260505012518 60 23 0.0 0.0 0.00 0.00 0.00 56 1012.8
20260505012015 61 248 0.0 0.0 0.00 0.00 0.00 55 1012.8
20260505011514 62 248 0.0 0.0 0.00 0.00 0.00 54 1012.8
20260505011012 62 203 0.0 0.0 0.00 0.00 0.00 54 1012.5
20260505010510 63 225 0.0 0.0 0.00 0.00 0.00 53 1012.5
20260505010009 63 248 0.0 0.0 0.00 0.00 0.00 52 1012.5
20260505005507 63 248 0.0 0.0 0.00 0.00 0.00 49 1012.5
20260505005005 64 248 0.0 0.0 0.00 0.00 0.00 47 1012.5
20260505004503 65 203 0.0 0.0 0.00 0.00 0.00 46 1012.1
20260505004001 66 203 0.0 0.0 0.00 0.00 0.00 44 1012.1
20260505003459 67 248 0.0 0.0 0.00 0.00 0.00 42 1012.1
20260505002958 69 248 0.0 0.0 0.00 0.00 0.00 40 1012.1
20260505002456 69 248 0.0 0.0 0.00 0.00 0.00 40 1012.1
20260505001954 69 248 0.0 0.0 0.00 0.00 0.00 39 1012.1
20260505001452 70 248 0.0 0.0 0.00 0.00 0.00 39 1011.8
20260505000950 71 248 0.0 0.0 0.00 0.00 0.00 38 1012.1
20260505000449 71 180 0.9 1.7 0.00 0.00 0.00 37 1012.1
20260504235947 72 270 0.0 0.0 0.00 0.00 0.00 36 1012.1
20260504235445 72 270 0.0 0.0 0.00 0.00 0.00 36 1011.8
20260504234943 73 248 0.0 0.0 0.00 0.00 0.00 35 1011.8
20260504234442 73 248 0.0 0.9 0.00 0.00 0.00 35 1011.8
20260504233940 73 248 0.0 0.9 0.00 0.00 0.00 34 1011.8
20260504233438 74 225 1.7 2.6 0.00 0.00 0.00 34 1011.8
20260504232937 74 248 0.9 1.7 0.00 0.00 0.00 33 1011.8
20260504232435 75 270 0.0 0.9 0.00 0.00 0.00 33 1011.8
20260504231933 75 180 0.0 1.7 0.00 0.00 0.00 32 1011.8
20260504231432 75 203 0.9 2.6 0.00 0.00 0.00 31 1011.5
20260504230930 76 225 0.9 4.3 0.00 0.00 0.00 31 1011.8
20260504230429 76 203 0.9 1.7 0.00 0.00 0.00 30 1011.5
20260504225927 76 338 1.7 4.3 0.00 0.00 0.00 30 1011.8
20260504225425 77 225 1.7 1.7 0.00 0.00 0.00 30 1011.5
20260504224923 77 225 0.0 0.9 0.00 0.00 0.00 30 1011.5
20260504224421 77 270 0.0 1.7 0.00 0.00 0.00 30 1011.8
20260504223919 77 270 0.9 1.7 0.00 0.00 0.00 29 1011.5
20260504223418 78 225 0.9 1.7 0.00 0.00 0.00 29 1011.5
20260504222916 79 203 1.7 2.6 0.00 0.00 0.00 28 1011.5
20260504222414 80 248 0.0 0.0 0.00 0.00 0.00 27 1011.8
20260504221912 80 0 0.0 0.9 0.00 0.00 0.00 28 1011.8
20260504221411 79 180 0.9 1.7 0.00 0.00 0.00 27 1011.8
20260504220909 80 248 0.9 3.5 0.00 0.00 0.00 27 1011.8
20260504220407 80 248 2.6 3.5 0.00 0.00 0.00 27 1011.5
20260504215906 81 180 0.9 2.6 0.00 0.00 0.00 26 1011.5
20260504215404 80 270 0.9 1.7 0.00 0.00 0.00 26 1011.8
20260504214902 80 270 0.0 1.7 0.00 0.00 0.00 27 1011.5
20260504214400 81 203 4.3 6.1 0.00 0.00 0.00 26 1011.5
20260504213858 81 203 2.6 4.3 0.00 0.00 0.00 26 1011.8
20260504213356 80 225 0.0 0.0 0.00 0.00 0.00 27 1011.5
20260504212854 80 203 2.6 4.3 0.00 0.00 0.00 27 1011.8
20260504212353 82 225 0.0 0.9 0.00 0.00 0.00 26 1011.8
20260504211851 82 293 0.9 1.7 0.00 0.00 0.00 26 1011.8
20260504211349 82 203 0.9 1.7 0.00 0.00 0.00 27 1011.8
20260504210847 82 248 4.3 6.1 0.00 0.00 0.00 27 1011.8
20260504210346 82 248 4.3 6.1 0.00 0.00 0.00 27 1011.8
20260504205844 82 248 0.9 1.7 0.00 0.00 0.00 27 1011.8
20260504205342 82 293 0.9 1.7 0.00 0.00 0.00 27 1011.8
20260504204841 82 270 2.6 4.3 0.00 0.00 0.00 28 1011.8
20260504204339 83 270 0.9 2.6 0.00 0.00 0.00 26 1011.8
20260504203837 82 203 0.9 1.7 0.00 0.00 0.00 27 1012.1
20260504203335 83 248 0.0 0.9 0.00 0.00 0.00 25 1012.1
20260504202834 83 45 0.9 1.7 0.00 0.00 0.00 25 1011.8
20260504202330 83 293 0.0 0.0 0.00 0.00 0.00 25 1012.1
20260504201829 82 270 0.9 1.7 0.00 0.00 0.00 25 1012.5
20260504201327 82 293 0.0 0.0 0.00 0.00 0.00 27 1012.5
20260504200825 82 248 0.9 1.7 0.00 0.00 0.00 26 1012.5
20260504200323 82 113 0.9 1.7 0.00 0.00 0.00 26 1012.5
20260504195822 82 270 0.0 0.0 0.00 0.00 0.00 27 1012.5
20260504195320 83 248 2.6 4.3 0.00 0.00 0.00 25 1012.8
20260504194818 82 203 0.0 0.9 0.00 0.00 0.00 28 1012.5
20260504194317 82 248 0.0 0.9 0.00 0.00 0.00 27 1012.5
20260504193815 82 293 0.9 4.3 0.00 0.00 0.00 26 1012.8
20260504193313 83 225 0.0 0.9 0.00 0.00 0.00 29 1012.5
20260504192811 83 203 1.7 3.5 0.00 0.00 0.00 26 1012.8
20260504192309 84 248 0.0 0.0 0.00 0.00 0.00 27 1012.8
20260504191808 81 248 2.6 4.3 0.00 0.00 0.00 25 1012.8
20260504191306 80 225 2.6 4.3 0.00 0.00 0.00 28 1012.8
20260504190805 82 248 0.0 0.9 0.00 0.00 0.00 29 1013.2
20260504190303 79 248 2.6 5.2 0.00 0.00 0.00 31 1013.2
20260504185801 80 293 5.2 7.0 0.00 0.00 0.00 30 1012.8
20260504185259 81 135 0.0 0.9 0.00 0.00 0.00 29 1013.2
20260504184758 81 225 2.6 4.3 0.00 0.00 0.00 30 1013.2
20260504184256 80 68 0.0 0.9 0.00 0.00 0.00 31 1013.2
20260504183755 82 293 3.5 4.3 0.00 0.00 0.00 29 1013.2
20260504183253 81 90 0.9 1.7 0.00 0.00 0.00 30 1013.2
20260504182751 81 90 0.0 0.0 0.00 0.00 0.00 31 1013.2
20260504182249 80 248 0.0 0.9 0.00 0.00 0.00 31 1013.5
20260504181747 79 293 0.0 0.9 0.00 0.00 0.00 34 1013.5
20260504181246 80 248 1.7 1.7 0.00 0.00 0.00 32 1013.5
20260504180744 80 225 0.9 4.3 0.00 0.00 0.00 31 1013.8
20260504180242 80 248 0.9 1.7 0.00 0.00 0.00 32 1013.8
20260504175741 80 180 0.0 1.7 0.00 0.00 0.00 33 1013.5
20260504175239 78 338 0.0 0.0 0.00 0.00 0.00 33 1013.8
20260504174737 81 45 0.0 1.7 0.00 0.00 0.00 32 1013.8
20260504174236 78 68 0.0 0.0 0.00 0.00 0.00 36 1013.5
20260504173734 78 23 3.5 4.3 0.00 0.00 0.00 33 1013.8
20260504173233 79 68 0.0 0.0 0.00 0.00 0.00 34 1013.8
20260504172731 79 158 1.7 3.5 0.00 0.00 0.00 34 1013.8
20260504172229 79 203 1.7 2.6 0.00 0.00 0.00 33 1013.8
20260504171727 81 293 0.0 0.0 0.00 0.00 0.00 30 1013.8
20260504171226 80 113 0.0 0.0 0.00 0.00 0.00 31 1014.2
20260504170724 79 338 0.0 0.0 0.00 0.00 0.00 31 1013.8
20260504170222 79 203 1.7 2.6 0.00 0.00 0.00 29 1014.2
20260504160202 75 23 3.5 4.3 0.00 0.00 0.00 34 1015.5
20260504151145 74 270 0.0 0.0 0.00 0.00 0.00 41 1015.5
20260504150643 72 225 0.0 0.0 0.00 0.00 0.00 44 1015.5
20260504150141 74 90 0.0 0.0 0.00 0.00 0.00 42 1015.5
20260504141124 68 0 0.9 1.7 0.00 0.00 0.00 49 1015.5
20260504140622 68 23 0.0 0.0 0.00 0.00 0.00 51 1015.5
20260504140120 68 45 0.0 0.0 0.00 0.00 0.00 51 1015.2
20260504130601 62 338 0.0 0.0 0.00 0.00 0.00 65 1015.2